FENGYUN 1C DEB, 33648

Orbit data source: Space-Track

FENGYUN 1C DEB, 33648 is space debris in SSO originally from a launch on Mon, 10 May 1999 UTC launched from the Taiyaun Space Center, China (TSC). Fengyun 1C debris stems from the Chinese weather satellite Fengyun-1C, which was intentionally destroyed by a Chinese anti-satellite missile in 2007. This event dramatically increased the amount of space debris, with thousands of trackable fragments posing hazards to satellites and human spaceflight. The Fengyun 1C debris cloud has become a focal point in discussions about space sustainability and the need for international regulations to prevent the creation of new debris.

Loading next visibility...
Identifier
33648, 1999-025DEH
Orbit
SSO
Country
Flag of CNCN / PRC
Related business
Manufacturer
Unknown
Mission
Spacecraft
Bus & Motor
Unknown
Mass
Unknown
Launch date (UTC)
1999-05-10 (27 years ago)
Launch vehicle
Unknown
Launch site
Taiyaun Space Center, China (TSC)
Object type
Payload
Rocket body
Debris
Shape & HBR
Unknown shape, 0.1 m
Radar Cross Section
Medium (>0.1 m² and <1 m²)

Expand to show TLE details & history
Last TLE update: 2 days ago

TLE from 2 days ago
0 FENGYUN 1C DEB
1 33648U 99025DEH 26235.71592500  .00000139  00000-0  97089-4 0  9996
2 33648  98.7300 232.5254 0068804 172.3795 187.8440 14.11887144679605
Epoch: 2026-08-23T17:10Z
TLE epoch observation values (Epoch: 2026-08-23T17:10:55.920Z)
Latitude
0.00008°
Longitude
2.78439°
Altitude
905.127 km
Speed
7.374 km/s
True Right ascension
15h 30m 06s
True Declination
0° 00' 00"
Sunlit
Object was in daylight at epoch
Visualization orbit readout
Latitude
Unknown
Longitude
Unknown
Altitude
Unknown
Speed
Unknown
Apparent Right ascension
Unknown
Apparent Declination
Unknown
Sunlit
N/A
Visualization observer readout
Local Sidereal Time
14:16:39
Azimuth
Unknown
Elevation
Unknown
Doppler factor
Unknown
Orbital elements
Apogee altitude
899.824 km
Perigee altitude
800.358 km
Semi-major axis
7,228.228 km
Eccentricity
0.00688
Inclination
98.73°
RAAN
232.5254°
Arg. of periapsis
172.3795°
True anomaly
187.73731°
Mean anomaly
187.844°
Eccentric anomaly
187.79056°
Mean motion
3.53179 °/min
Orbital period
101.93 mins
BSTAR
0.000097089
Loading maneuver chart data...
Computing Atmospheric mass density...

Documentation

Showing up to 5 results
|